Temperature
15 15 15 15 15 15 15 15 15 15 15 15 15 15 15 15 15 15 15 15 15 15 15 15 15 15 15 15 15 15 15 15 15 15 15 15 15 15 15 15 15 15 15
15 15 15 15 15 15 15 15 15 15 15 15 15 15 15 15 15 15 15 15 15 15 15 15 15 15 15 15 15 15 15 15 15 15 15 15 15 15 15 15 15 14 14
15 15 15 15 15 15 15 15 15 15 15 15 15 15 15 14 14 14 15 15 15 15 15 15 15 15 15 14 14 14 14 14 14 14 14 14 14 14 14 14 14 14 14
15 15 15 15 15 15 15 15 15 15 15 15 15 15 15 15 14 14 14 15 15 15 15 15 14 14 14 14 14 14 14 14 14 14 14 14 14 14 14 14 14 14 14
15 15 15 15 15 15 15 15 15 15 15 15 15 15 15 15 15 15 14 14 14 14 14 14 14 14 14 14 14 14 14 14 14 14 14 14 14 14 14 14 14 14 14
15 15 15 15 15 15 15 15 15 15 15 15 15 15 15 15 14 14 15 15 14 14 14 14 14 14 14 14 14 14 14 14 14 14 14 13 13 13 13 14 13 13 14
15 15 15 14 14 15 15 15 15 15 15 14 14 14 14 14 14 14 14 14 14 14 14 14 14 14 14 14 14 14 14 14 13 13 13 13 13 13 13 13 13 13 13
15 15 14 14 14 14 14 14 14 14 14 14 14 14 14 14 14 14 14 14 14 14 14 14 14 14 13 13 13 13 13 13 13 13 13 13 13 13 13 13 13 13 13
14 14 14 14 14 14 14 14 14 14 14 14 14 14 14 14 14 14 14 14 14 14 14 14 13 13 13 13 13 13 13 13 13 13 13 13 13 13 13 13 13 13 13
14 14 14 14 14 14 14 14 14 14 14 14 14 14 14 14 14 14 14 14 14 14 14 13 13 13 13 13 13 13 13 13 13 13 13 13 13 12 12 12 12 13 13
13 14 14 14 14 14 14 14 14 14 14 14 13 13 13 13 13 13 13 13 13 13 13 13 13 13 13 13 13 13 13 13 13 13 13 12 12 12 12 12 12 12 12
13 13 13 13 14 13 13 13 13 13 13 13 13 13 13 13 13 13 13 13 13 13 13 13 13 13 13 13 13 13 12 12 13 12 12 12 12 12 12 12 12 12 12
13 13 13 13 13 13 13 13 13 13 13 13 13 13 13 13 13 13 13 13 13 13 13 12 12 13 13 12 12 12 12 12 12 12 12 12 12 12 12 12 12 12 12
12 12 12 12 13 13 13 13 13 13 13 13 13 12 12 12 12 12 12 12 12 12 12 12 12 12 12 12 12 12 12 12 12 12 12 12 12 12 12 11 11 12 12
12 12 12 12 12 12 12 12 12 12 12 12 12 12 12 12 12 12 12 12 12 12 12 12 12 12 12 12 12 12 12 12 12 12 12 12 12 11 11 11 11 11 11
12 12 12 12 12 12 12 12 12 12 12 12 12 12 11 11 11 11 11 11 11 11 11 11 11 11 11 11 11 11 11 11 12 12 11 11 11 11 11 11 11 11 11
11 11 11 11 11 11 11 11 11 11 11 11 11 11 11 11 11 11 11 11 11 11 11 11 11 11 11 11 11 11 11 11 11 11 11 11 11 11 11 11 11 11 11
11 11 11 11 11 11 11 11 11 11 11 11 10 10 10 10 10 10 10 10 10 10 10 10 10 10 10 11 11 11 11 11 11 11 11 11 11 11 11 11 11 10 10
11 11 10 10 10 10 10 10 10 10 10 10 10 10 10 10 10 10 10 10 10 10 10 10 10 10 10 10 10 10 10 10 10 10 10 10 10 10 10 10 10 10 10
10 10 10 10 10 10 10 10 10 9 9 9 9 9 9 9 9 9 9 9 9 9 9 9 9 9 9 10 10 10 10 10 10 10 10 10 10 10 10 10 10 10 10
9 10 9 9 9 9 9 9 9 9 9 9 9 9 9 9 9 9 9 9 9 9 9 9 9 9 9 9 9 9 9 9 9 9 9 9 9 9 9 9 9 9 9
9 9 9 9 9 9 9 9 9 8 8 8 8 8 8 8 8 8 8 8 8 8 8 8 8 8 8 8 8 8 8 8 9 9 9 9 9 9 9 9 9 9 9
9 9 9 9 9 8 8 8 8 8 8 8 8 8 8 8 8 8 8 8 8 8 8 8 7 7 7 7 7 7 7 7 8 8 8 8 8 8 8 8 8 8 8
9 8 8 8 8 8 8 8 7 7 7 7 7 7 7 7 7 7 7 7 7 7 7 7 7 7 7 7 6 6 7 7 7 7 7 8 8 8 8 8 8 8 8
8 8 8 8 8 7 7 7 7 7 7 7 7 7 7 7 7 7 7 7 7 7 7 7 6 6 6 6 6 6 6 6 6 6 6 7 7 7 7 7 7 7 7
7 7 7 7 7 7 7 7 6 6 6 6 6 6 6 6 6 6 6 6 6 6 6 6 6 6 6 6 5 5 5 5 5 5 5 6 6 6 7 7 7 7 7
Wind_Speed
2 4 9 9 10 12 12 13 13 14 14 13 13 13 13 13 13 13 13 13 13 13 13 13 14 14 14 14 15 15 15 15 15 15 15 15 15 15 15 14 14 14 15
5 6 10 11 11 12 12 12 13 13 13 12 13 13 13 13 12 12 12 12 12 12 13 13 13 13 13 13 13 13 13 14 14 14 14 14 14 13 13 13 13 12 14
6 8 10 11 11 12 12 12 12 12 12 12 12 12 12 12 12 12 12 12 12 12 12 12 12 12 12 12 12 12 12 12 12 12 12 11 11 12 12 12 12 12 12
8 8 10 12 12 12 12 12 12 12 11 11 12 11 11 11 11 11 11 11 11 11 11 11 11 11 11 11 11 11 11 11 10 10 9 9 9 11 11 11 11 11 11
8 8 9 12 12 11 12 12 11 11 11 11 11 11 10 10 10 10 10 10 10 10 10 10 9 9 9 9 9 10 10 10 9 8 7 7 8 9 10 9 9 9 9
8 9 10 12 11 11 12 12 11 11 11 11 10 10 10 9 9 9 9 9 9 8 8 8 8 8 8 8 8 8 8 8 8 7 6 6 6 8 8 8 7 7 7
8 9 10 12 11 11 11 11 11 11 10 10 10 10 9 9 8 8 8 8 8 7 7 7 6 6 6 6 6 6 6 7 7 6 5 4 5 6 6 6 5 5 5
8 9 10 11 11 11 11 11 11 10 10 10 10 9 9 9 9 8 7 7 7 6 6 6 5 5 4 4 5 5 5 5 5 4 3 3 4 5 5 5 4 4 4
8 8 9 10 10 10 10 10 10 10 10 10 10 9 9 9 8 8 8 7 6 6 5 5 4 3 4 3 3 4 4 4 4 3 2 1 3 3 3 3 3 3 3
7 7 7 8 9 9 9 10 10 10 10 9 9 9 9 8 8 8 7 6 6 6 5 4 3 3 2 2 2 2 2 3 3 2 1 1 1 2 2 3 3 2 2
6 5 6 7 7 8 8 8 9 9 9 8 8 8 8 7 7 6 6 6 5 5 4 4 4 3 3 2 1 1 1 2 2 1 0 1 2 2 2 2 3 3 2
5 4 4 5 6 7 6 7 7 6 7 7 6 7 7 7 6 5 5 5 4 4 4 4 4 4 4 3 2 1 1 1 1 0 1 1 2 2 2 3 3 3 3
4 4 4 4 6 6 5 6 5 5 5 5 6 5 6 6 5 4 4 3 3 3 3 3 4 4 3 3 2 1 1 1 1 1 1 1 2 2 3 3 4 3 3
5 4 4 4 5 5 6 5 4 4 4 4 3 4 5 4 3 3 3 2 2 2 3 3 3 3 3 2 2 1 1 1 1 2 2 2 2 3 3 3 4 4 4
5 4 4 4 5 4 5 4 4 3 3 3 4 4 4 3 2 2 2 2 2 2 2 2 2 2 2 3 2 1 0 0 1 2 2 2 3 4 4 4 5 5 5
4 4 4 4 4 4 4 3 3 4 4 4 4 3 4 3 2 2 1 2 2 2 1 1 1 1 2 2 2 2 1 1 1 2 2 2 4 5 5 5 4 5 5
4 4 4 4 4 4 4 4 3 3 4 4 3 3 3 3 2 2 1 1 2 2 2 1 2 2 2 2 2 3 2 2 2 2 2 2 2 4 5 5 4 5 5
4 4 3 3 4 4 4 3 3 3 4 3 3 2 2 2 2 2 1 0 1 2 2 1 1 1 2 2 2 3 2 2 2 2 2 2 2 2 4 5 5 6 6
4 4 3 3 4 3 3 3 3 4 3 3 3 2 2 2 1 2 1 1 1 2 2 1 1 1 1 2 3 3 3 2 2 2 2 2 2 3 3 5 6 7 7
4 4 4 3 3 3 3 3 3 3 2 3 3 2 1 1 1 1 1 1 2 1 1 1 1 2 1 2 3 3 3 3 2 2 2 2 2 3 3 4 4 6 7
4 5 4 4 3 3 2 2 2 1 1 1 2 3 2 2 1 1 1 1 1 0 1 1 0 1 2 2 2 3 4 3 2 2 2 2 2 3 3 4 4 4 5
4 4 4 3 3 2 2 2 2 2 1 1 1 2 3 3 1 0 1 0 0 0 1 1 1 1 1 1 0 1 3 4 3 2 2 2 2 2 3 4 4 4 4
4 4 4 3 3 2 2 2 2 2 1 1 1 1 2 3 2 1 0 0 0 1 1 1 1 1 2 2 1 1 1 3 4 3 2 2 2 2 3 4 4 4 4
5 4 4 3 3 2 2 3 3 2 1 1 1 1 2 2 2 2 1 1 0 0 1 2 1 2 2 2 2 2 2 2 1 3 3 2 3 3 3 3 4 4 4
5 4 4 3 3 2 3 3 3 2 1 1 0 1 1 2 3 2 1 1 1 1 1 1 1 2 2 2 2 2 2 2 2 2 4 4 3 3 3 3 3 4 4
4 4 4 4 2 2 3 2 2 2 1 1 0 1 1 1 2 3 2 2 2 1 2 2 2 2 2 2 2 2 2 2 2 2 4 4 4 3 3 3 3 3 4
Wind_Direction
161 155 135 125 115 108 105 102 99 97 96 95 95 96 97 97 96 95 93 90 87 84 83 81 82 81 79 80 81 81 81 80 80 79 79 78 79 80 78 76 73 71 71
155 149 138 128 119 112 109 105 101 99 97 97 97 97 98 99 97 96 95 94 90 87 84 82 82 81 78 79 81 82 83 83 83 81 78 77 78 81 80 78 77 76 74
126 137 138 128 121 117 113 109 105 101 100 98 98 98 98 98 97 96 95 94 92 90 87 85 84 82 79 79 79 82 83 85 85 86 81 75 79 83 82 79 78 79 78
118 125 134 128 123 119 117 113 109 104 101 100 99 99 98 98 98 96 95 94 94 93 92 91 88 85 83 82 83 83 80 79 86 88 80 78 82 87 85 81 80 82 81
98 106 124 127 123 121 117 115 111 107 103 101 101 100 98 98 98 95 94 94 95 96 96 93 91 90 87 84 84 83 78 74 81 84 81 83 86 90 87 86 82 82 83
98 101 112 116 119 119 115 112 112 110 106 102 100 101 98 97 98 96 94 91 93 96 98 98 97 95 90 86 85 84 76 73 72 75 79 90 96 96 94 90 88 85 88
108 105 112 112 111 112 112 110 108 109 107 103 100 98 95 95 96 96 94 92 91 90 96 99 100 98 93 90 88 85 79 74 71 76 82 94 111 109 105 100 96 94 94
113 105 111 112 110 109 109 108 108 108 105 103 100 97 94 91 90 90 90 90 90 88 87 89 93 93 90 91 89 87 85 79 71 75 78 100 125 124 117 117 110 110 108
103 101 101 108 111 109 106 104 102 102 102 100 97 94 92 90 89 87 85 82 81 79 79 78 76 79 76 78 86 85 80 86 83 77 71 100 142 141 134 127 123 120 121
95 95 96 101 105 105 105 102 100 97 94 94 94 92 90 87 84 83 79 77 76 73 70 66 57 54 56 59 68 88 90 86 84 79 80 149 171 165 164 161 157 152 146
104 100 99 98 100 105 109 109 104 101 98 92 89 88 86 80 78 80 79 76 72 66 62 52 31 20 18 22 31 68 82 89 95 76 148 207 218 204 200 194 188 189 180
125 121 110 106 104 106 111 107 101 101 102 95 89 88 86 81 77 75 79 72 63 52 46 34 16 9 4 0 357 355 117 127 129 124 200 223 227 226 227 224 222 222 214
144 129 121 112 109 106 99 105 98 98 102 98 94 93 89 82 75 65 62 59 49 35 22 10 6 357 356 359 4 38 148 130 152 206 218 227 238 250 241 239 238 239 235
137 136 132 115 111 108 107 108 106 99 101 94 102 104 93 82 69 58 52 40 37 19 9 6 359 352 2 11 30 52 101 145 186 219 226 234 243 249 249 253 248 242 239
140 143 146 129 120 114 109 107 106 107 111 110 109 113 106 93 92 65 46 37 22 9 358 353 355 360 15 16 14 22 8 220 202 209 224 245 248 256 259 262 257 249 241
153 153 152 139 127 120 115 113 116 113 108 102 101 104 110 105 100 93 68 34 9 357 342 351 6 8 360 6 352 336 294 260 230 218 213 239 252 257 260 264 266 263 254
162 154 148 147 127 127 128 127 119 112 106 95 98 110 108 108 109 107 109 62 1 1 14 24 27 25 2 353 328 324 303 267 234 226 227 234 262 268 262 261 264 263 257
146 144 143 135 130 128 127 124 115 104 101 97 97 101 104 108 113 99 107 89 9 34 38 21 6 349 338 333 315 304 306 291 255 236 229 233 242 260 268 267 263 264 261
140 139 132 128 136 136 126 116 109 99 92 90 85 76 87 95 100 92 103 28 39 50 44 3 349 319 314 320 304 296 294 282 271 256 245 237 241 247 258 268 268 267 267
129 125 121 116 120 131 125 111 106 95 75 72 69 56 63 85 100 94 77 36 47 53 5 2 341 330 293 302 307 308 297 289 279 261 253 257 262 257 260 265 268 268 266
120 120 122 117 119 131 135 139 145 153 152 101 53 46 37 39 84 107 102 66 58 340 293 305 300 326 330 342 349 326 315 303 289 275 271 266 278 273 271 269 266 266 267
145 138 134 133 135 145 153 160 164 169 179 190 41 37 31 22 17 75 123 172 191 270 333 337 359 326 315 348 36 345 327 325 319 295 283 264 273 302 297 293 287 272 269
158 158 153 145 138 138 137 124 103 82 63 40 6 336 2 9 12 25 58 151 217 218 237 266 255 262 272 293 280 184 208 266 302 301 288 290 299 299 295 303 298 289 281
175 160 147 141 124 112 115 134 141 148 182 224 241 259 347 12 2 19 37 50 35 300 264 264 255 248 236 259 279 268 236 213 248 298 303 306 311 291 291 304 302 297 294
161 152 145 134 122 114 108 128 140 152 196 215 293 349 337 6 5 5 14 35 11 327 292 299 288 267 242 242 248 271 281 272 240 245 284 305 316 296 293 289 290 300 306
146 144 140 138 131 128 117 115 131 151 162 144 153 286 312 329 355 357 1 9 351 327 299 287 278 273 259 256 257 254 256 258 255 249 265 285 292 293 299 287 280 292 305
Height
1537 1538 1539 1540 1540 1541 1541 1542 1543 1543 1543 1544 1544 1544 1544 1544 1544 1544 1545 1545 1545 1545 1545 1545 1545 1545 1545 1545 1544 1544 1544 1544 1544 1544 1544 1544 1543 1543 1543 1543 1543 1543 1543
1536 1538 1539 1540 1541 1541 1542 1543 1543 1544 1544 1544 1545 1545 1545 1546 1546 1546 1546 1546 1546 1546 1546 1546 1546 1546 1546 1546 1546 1545 1546 1545 1545 1545 1545 1545 1545 1545 1544 1544 1544 1544 1544
1536 1538 1539 1540 1541 1542 1543 1543 1544 1544 1545 1545 1545 1546 1546 1547 1547 1547 1547 1547 1547 1547 1547 1547 1547 1547 1547 1547 1547 1547 1546 1546 1546 1546 1546 1546 1546 1546 1546 1546 1545 1545 1545
1536 1537 1539 1540 1541 1542 1543 1544 1545 1545 1545 1546 1546 1547 1547 1547 1547 1548 1548 1548 1548 1548 1548 1548 1548 1548 1548 1548 1548 1548 1547 1547 1547 1547 1547 1547 1547 1547 1547 1547 1547 1546 1546
1536 1537 1539 1540 1542 1543 1543 1544 1545 1545 1546 1546 1547 1547 1547 1548 1548 1548 1548 1548 1548 1548 1548 1548 1549 1549 1549 1549 1549 1548 1548 1548 1548 1548 1548 1548 1548 1548 1548 1548 1548 1547 1547
1536 1537 1539 1540 1542 1543 1544 1544 1545 1546 1546 1547 1547 1548 1548 1548 1548 1549 1549 1549 1549 1549 1549 1549 1549 1549 1549 1549 1549 1549 1549 1549 1549 1549 1549 1549 1549 1549 1549 1548 1548 1548 1548
1535 1537 1539 1540 1541 1543 1544 1544 1545 1546 1546 1547 1547 1548 1548 1548 1549 1549 1549 1549 1549 1549 1549 1550 1550 1550 1550 1550 1550 1550 1550 1550 1550 1550 1550 1550 1550 1550 1549 1549 1549 1549 1548
1536 1537 1539 1540 1541 1543 1544 1544 1545 1546 1547 1547 1547 1548 1548 1548 1549 1549 1549 1549 1549 1549 1550 1550 1550 1550 1550 1550 1550 1550 1550 1550 1550 1550 1550 1550 1550 1550 1550 1549 1549 1549 1549
1536 1537 1538 1540 1541 1543 1544 1544 1545 1546 1546 1547 1547 1548 1548 1548 1549 1549 1549 1549 1549 1549 1549 1550 1550 1550 1550 1551 1551 1551 1550 1550 1550 1550 1550 1550 1550 1550 1550 1550 1549 1549 1549
1536 1537 1538 1539 1540 1542 1543 1544 1545 1545 1546 1547 1547 1547 1548 1548 1548 1549 1549 1549 1549 1549 1549 1549 1550 1550 1550 1550 1550 1550 1550 1550 1550 1550 1550 1550 1550 1550 1549 1549 1549 1549 1548
1535 1536 1537 1538 1540 1541 1542 1543 1544 1545 1545 1546 1546 1547 1547 1547 1548 1548 1548 1548 1548 1549 1549 1549 1549 1549 1550 1549 1550 1550 1549 1549 1549 1549 1549 1549 1549 1549 1549 1549 1548 1548 1548
1533 1535 1536 1537 1539 1540 1541 1542 1543 1544 1545 1545 1545 1545 1546 1546 1546 1547 1547 1548 1548 1548 1548 1548 1548 1548 1549 1548 1548 1548 1548 1548 1548 1548 1548 1548 1548 1547 1547 1547 1547 1547 1547
1532 1533 1535 1536 1538 1539 1540 1541 1542 1543 1543 1544 1544 1544 1544 1545 1545 1546 1546 1546 1547 1547 1547 1547 1547 1547 1547 1547 1547 1547 1547 1547 1547 1546 1546 1546 1546 1546 1546 1546 1546 1546 1545
1531 1532 1534 1535 1536 1537 1538 1539 1540 1541 1542 1542 1542 1542 1543 1543 1543 1544 1544 1544 1545 1545 1545 1545 1545 1545 1545 1545 1545 1545 1545 1545 1545 1545 1545 1545 1545 1544 1544 1544 1544 1544 1544
1530 1531 1533 1534 1535 1536 1537 1538 1539 1539 1540 1540 1540 1541 1541 1541 1542 1542 1542 1543 1543 1543 1543 1543 1544 1543 1543 1543 1543 1543 1543 1543 1543 1543 1542 1542 1543 1542 1542 1542 1542 1542 1541
1528 1530 1531 1533 1534 1535 1535 1536 1537 1537 1538 1538 1538 1539 1539 1540 1540 1540 1540 1541 1541 1541 1541 1541 1541 1541 1541 1541 1541 1541 1541 1541 1540 1540 1540 1540 1540 1540 1540 1539 1539 1539 1539
1527 1528 1530 1531 1532 1533 1534 1535 1535 1536 1536 1536 1536 1537 1538 1538 1538 1538 1538 1538 1538 1539 1539 1539 1539 1539 1539 1538 1538 1538 1538 1538 1537 1537 1537 1537 1537 1537 1536 1536 1536 1536 1536
1525 1526 1528 1529 1530 1531 1532 1533 1533 1534 1534 1534 1534 1535 1535 1536 1536 1536 1536 1536 1536 1536 1536 1536 1536 1536 1536 1536 1535 1535 1535 1535 1534 1534 1534 1534 1534 1534 1533 1533 1533 1533 1533
1522 1524 1525 1527 1528 1529 1530 1531 1531 1532 1532 1532 1532 1533 1533 1533 1533 1533 1533 1533 1533 1533 1533 1533 1533 1534 1533 1533 1533 1533 1532 1532 1532 1531 1531 1531 1531 1530 1530 1530 1530 1529 1529
1520 1522 1523 1524 1525 1527 1527 1528 1529 1529 1530 1530 1530 1530 1530 1531 1531 1531 1531 1531 1531 1531 1531 1531 1531 1531 1531 1530 1530 1530 1529 1529 1528 1528 1528 1528 1527 1527 1527 1526 1526 1526 1526
1518 1519 1520 1522 1523 1524 1524 1525 1526 1526 1527 1527 1527 1527 1527 1528 1528 1528 1528 1528 1528 1528 1528 1528 1528 1528 1528 1528 1527 1526 1526 1526 1525 1525 1525 1524 1524 1523 1523 1523 1522 1522 1522
1515 1517 1518 1519 1520 1521 1522 1523 1523 1524 1524 1525 1525 1525 1525 1525 1525 1525 1525 1525 1525 1525 1525 1525 1525 1525 1525 1525 1525 1524 1523 1523 1521 1522 1521 1521 1521 1520 1520 1519 1519 1519 1518
1512 1514 1516 1517 1518 1519 1520 1520 1521 1521 1521 1522 1522 1522 1522 1522 1522 1523 1523 1523 1522 1522 1522 1522 1522 1522 1521 1522 1522 1522 1521 1519 1519 1518 1518 1517 1517 1516 1516 1515 1515 1515 1514
1509 1511 1513 1514 1515 1516 1517 1518 1518 1518 1518 1519 1519 1519 1519 1519 1519 1519 1519 1519 1519 1519 1519 1519 1519 1519 1518 1518 1519 1519 1519 1518 1517 1514 1514 1514 1513 1513 1512 1512 1511 1510 1510
1507 1508 1510 1512 1513 1514 1514 1515 1515 1516 1516 1516 1516 1516 1516 1516 1516 1516 1516 1516 1516 1515 1515 1515 1515 1515 1515 1515 1515 1515 1515 1514 1514 1513 1510 1509 1508 1508 1508 1507 1507 1506 1506
1504 1506 1507 1509 1510 1511 1511 1512 1513 1513 1513 1514 1514 1514 1513 1513 1513 1512 1512 1512 1512 1512 1512 1512 1512 1511 1511 1511 1511 1511 1510 1510 1509 1509 1507 1505 1504 1504 1503 1503 1503 1502 1502